GW4018 Weather Reports


time (UTC)temp
C
wind
direction
speed
KPH
gust
KPH
rain 1hr
cm
rain 24hr
cm
rain mn
cm
humidity
%
barometer
mb
20260504173102 12 42 14.5 33.8 0.00 0.00 0.00 38 1015.2
20260504171554 12 29 20.9 32.2 0.00 0.00 0.00 39 1015.2
20260504081552 9 88 14.5 29.0 0.00 0.00 0.00 50 1015.1
20260504080109 10 84 12.9 27.4 0.00 0.00 0.00 48 1014.9
20260504044559 14 100 11.3 20.9 0.00 0.03 0.00 36 1009.4
20260504043055 15 85 14.5 22.5 0.00 0.03 0.00 36 1008.8
20260504041553 15 78 12.9 17.7 0.00 0.03 0.00 36 1008.5
20260504040103 15 84 11.3 20.9 0.00 0.03 0.00 35 1008.3
20260504034559 16 88 20.9 29.0 0.00 0.03 0.00 33 1008.0
20260504033126 16 80 16.1 22.5 0.00 0.03 0.00 30 1007.6
20260504031551 17 82 12.9 19.3 0.00 0.03 0.00 27 1007.3
20260504030051 17 104 3.2 9.7 0.00 0.03 0.00 25 1006.9
20260504024557 18 93 6.4 11.3 0.00 0.03 0.00 24 1006.9
20260504023102 18 83 4.8 9.7 0.00 0.03 0.00 26 1006.9
20260504021553 19 81 3.2 12.9 0.00 0.03 0.00 25 1006.9
20260504020101 20 78 6.4 14.5 0.00 0.03 0.00 25 1006.8
20260504014552 21 73 6.4 20.9 0.00 0.03 0.00 22 1006.7
20260504013105 22 67 12.9 22.5 0.00 0.03 0.00 23 1006.8
20260504011553 22 57 16.1 22.5 0.00 0.03 0.00 21 1006.8
20260504010112 23 39 8.0 17.7 0.00 0.03 0.00 19 1006.8
20260504004614 24 30 6.4 20.9 0.00 0.03 0.00 18 1006.8
20260504003055 23 335 9.7 22.5 0.00 0.03 0.00 17 1007.0
20260504001607 24 98 8.0 20.9 0.00 0.03 0.00 17 1007.1
20260504000052 24 18 8.0 22.5 0.00 0.03 0.00 16 1007.1
20260503234554 24 9 12.9 24.1 0.00 0.03 0.00 17 1007.4
20260503233052 23 46 8.0 19.3 0.00 0.03 0.00 16 1007.4
20260503231550 24 340 11.3 29.0 0.00 0.03 0.00 17 1007.5
20260503230100 23 360 11.3 20.9 0.00 0.03 0.00 16 1007.6
20260503224554 23 337 14.5 30.6 0.00 0.03 0.00 17 1007.8
20260503223058 23 5 11.3 33.8 0.00 0.03 0.00 17 1007.9
20260503221555 23 13 11.3 29.0 0.00 0.03 0.00 17 1008.0
20260503220057 23 13 8.0 22.5 0.00 0.03 0.00 17 1008.2
20260503214553 23 16 14.5 27.4 0.00 0.03 0.00 18 1008.4
20260503213107 23 360 12.9 24.1 0.00 0.03 0.00 18 1008.7
20260503211554 23 44 6.4 27.4 0.00 0.03 0.00 18 1009.0
20260503210100 23 13 16.1 32.2 0.00 0.03 0.00 17 1009.4
20260503204554 22 355 17.7 32.2 0.00 0.03 0.00 18 1009.8
20260503203103 22 9 12.9 29.0 0.00 0.03 0.00 17 1009.9
20260503201605 22 314 12.9 25.7 0.00 0.03 0.00 18 1009.9
20260503200101 22 26 11.3 27.4 0.00 0.03 0.00 20 1010.2
20260503194554 22 319 16.1 30.6 0.00 0.03 0.00 19 1010.3
20260503193056 22 321 14.5 32.2 0.00 0.03 0.00 20 1010.8
20260503191601 22 315 14.5 29.0 0.00 0.03 0.00 22 1010.8
20260503190057 21 351 9.7 25.7 0.00 0.03 0.00 22 1011.2
20260503184600 21 321 12.9 24.1 0.00 0.03 0.00 23 1011.3
20260503183113 21 16 8.0 27.4 0.00 0.03 0.00 25 1011.5
20260503181559 20 17 12.9 27.4 0.00 0.03 0.00 25 1011.7
20260503180058 20 34 6.4 22.5 0.00 0.03 0.00 26 1011.9
20260503174556 20 355 9.7 24.1 0.00 0.03 0.00 25 1012.0